Regional Weather Roundup
Issued by NWS

Home | Current Version | Previous Version | Graphics & Text | Print | Product List | Glossary Off
Versions: 1 2 3 4 5 6 7 8 9 10 11 12 13 14 15 16 17 18 19 20 21 22 23 24 25 26 27 28 29 30 31 32 33 34 35 36 37 38 39 40 41 42 43 44 45 46 47 48 49 50

000
ASUS43 KMKX 032021
RWRWI

WISCONSIN REGIONAL WEATHER ROUNDUP
NATIONAL WEATHER SERVICE MILWAUKEE/SULLIVAN WI
300 PM CDT SUN MAY 03 2015

NOTE: "FAIR" INDICATES FEW OR NO CLOUDS BELOW 12,000 FEET WITH NO
SIGNIFICANT WEATHER AND/OR OBSTRUCTIONS TO VISIBILITY.

WIZ001-002-006>008-014>016-023>028-032100-
NORTHWEST WISCONSIN

CITY           SKY/WX    TMP DP  RH WIND       PRES   REMARKS
SUPERIOR ARPT  CLOUDY    77  44  29 NW10      29.76S
ASHLAND        CLOUDY    82  51  34 VRB5      29.76S HX  81
HAYWARD        CLOUDY    76  48  37 VRB3      29.78F
SIREN          MOSUNNY   76  51  41 SW7       29.79S
CUMBERLAND     MOSUNNY   75  46  35 NW5       29.79F
RICE LAKE      MOSUNNY   78  48  34 SW5       29.80F
CHETEK         PTSUNNY   78  55  44 S6        29.78F
LADYSMITH      PTSUNNY   77  52  41 W5        29.81F
EAU CLAIRE     SUNNY     78  53  41 VRB5      29.78F
MENOMONIE      SUNNY     79  52  39 CALM      29.79F
NEW RICHMOND   SUNNY     79  51  37 S3        29.78F
OSCEOLA        SUNNY     78  53  41 CALM      29.80F
$$

WIZ003>005-009-010-017-018-032100-
NORTH CENTRAL WISCONSIN

CITY           SKY/WX    TMP DP  RH WIND       PRES   REMARKS
MANITOWISH WTR PTSUNNY   77  51  39 W10       29.78F
ARBOR VITAE    MOSUNNY   77  48  35 W10G20    29.79S
WOODRUFF       MOSUNNY   77  48  35 W10G20    29.79S
RHINELANDER    MOSUNNY   78  51  38 SW14G21   29.80F
EAGLE RIVER    MOSUNNY   77  47  34 SW15      29.79S
LAND O LAKES   MOSUNNY   80  44  27 SW12G20   29.78F
PHILLIPS       MOSUNNY   76  52  43 SW8       29.79F
TOMAHAWK       MOSUNNY   77  51  39 W5        29.80F
MEDFORD        MOSUNNY   75  52  44 SW8       29.82S
MERRILL        MOSUNNY   76  52  42 SW10G21   29.80S
$$

WIZ029-030-035-036-043>047-032100-
CENTRAL WISCONSIN

CITY           SKY/WX    TMP DP  RH WIND       PRES   REMARKS
WAUSAU         MOSUNNY   78  50  37 S13G21    29.79S
MOSINEE        MOSUNNY   77  52  41 SW17      29.82
MARSHFIELD     MOSUNNY   79  52  38 S14       29.81S
STEVENS POINT  MOSUNNY   77  51  39 SW13G20   29.81S
WAUPACA        MOSUNNY   80  51  36 S16G26    29.82R HX  80
WAUTOMA        PTSUNNY   80  53  39 S16G24    29.82F HX  80
WISC RAPIDS    MOSUNNY   78  49  35 S15       29.82F
CAMP DOUGLAS   PTSUNNY   81  54  39 SW9       29.81F HX  80
$$

WIZ011>013-019>022-031-037>040-048>050-032100-
NORTHEAST WISCONSIN

CITY           SKY/WX    TMP DP  RH WIND       PRES   REMARKS
ANTIGO         MOSUNNY   77  53  42 SW13G18   29.81F
SHAWANO        MOSUNNY   81  50  33 SW7       29.80F HX  80
OCONTO         MOSUNNY   79  52  39 S12G22    29.80F
STURGEON BAY   MOSUNNY   66  45  45 S21       29.85F
GREEN BAY      MOSUNNY   77  53  43 S20G26    29.83S
MANITOWOC      CLOUDY    62  46  55 S16       29.87S
APPLETON       PTSUNNY   75  52  43 SW21G28   29.84F
CLINTONVILLE   MOSUNNY   81  46  30 SW18      29.80F HX  80
OSHKOSH        CLOUDY    76  55  48 S20G28    29.83F
$$

WIZ032>034-041-042-053>061-032100-
SOUTHWEST WISCONSIN

CITY           SKY/WX    TMP DP  RH WIND       PRES   REMARKS
LA CROSSE      SUNNY     84  52  33 S12       29.79F HX  82
SPARTA         PTSUNNY   81  49  33 W12       29.82S HX  80
VIROQUA        MOSUNNY   78  51  39 SW15G22   29.84S
BOSCOBEL       SUNNY     79  54  41 S9G20     29.84F
PRAIRIE DU CHI SUNNY     78  53  41 SE9G17    29.82S
PLATTEVILLE    MOSUNNY   71  57  63 S21       29.89F
$$

WIZ056-057-062-063-064-067-068-032100-
SOUTH CENTRAL WISCONSIN

CITY           SKY/WX    TMP DP  RH WIND       PRES   REMARKS
REEDSBURG      PTSUNNY   75  54  47 SW15G24   29.85S
BARABOO/DELLS  NOT AVBL
LONE ROCK      MOSUNNY   76  54  46 S15       29.86S
MINERAL POINT  MOSUNNY   72  54  53 S20G28    29.88F
MADISON        PTSUNNY   74  55  51 S16G23    29.88S
MIDDLETON      PTSUNNY   77  51  40 SW15G21   29.88S
WATERTOWN      CLOUDY    74  56  52 S20       29.89R
MONROE         RAIN      63  57  82 S18       29.92R
JANESVILLE     RAIN      66  61  82 S13G18    29.91F
$$

WIZ051-052-058>065-066-070>072-032100-
SOUTHEAST WISCONSIN

CITY           SKY/WX    TMP DP  RH WIND       PRES   REMARKS
MILWAUKEE      PTSUNNY   76  51  41 SW18G26   29.90S
WAUKESHA       CLOUDY    73  52  46 SW16G23   29.91S
MILWAUKEE/TIMM PTSUNNY   79  48  34 S21G28    29.89S
RACINE         PTSUNNY   75  51  43 SW16G22   29.92S
BURLINGTON     CLOUDY    71  50  46 SW15G21   29.92S
KENOSHA        CLOUDY    75  51  43 SW15G21   29.92S
FOND DU LAC    CLOUDY    77  53  43 SW14G28   29.85F
SHEBOYGAN      PTSUNNY   78  53  41 S17G25    29.86F
WEST BEND      PTSUNNY   77  50  38 SW12G23   29.88S
JUNEAU         PTSUNNY   74  56  53 SW24      29.90R
$$

LSZ147-162-032100-
LAKE SUPERIOR

STATION/POSITION TIME  TEMP    WIND        PRES    WAVE
                       AIR SEA DIR/SP/G            HT/PER
                 (UTC) (F)     (DEG/KT/KT) (MB)    (FT/S)
W MID LAKE BUOY  1950   44 36  230/  8/  8 1008.0R   1
DEVILS ISLAND    2000   65     230/ 13/ 15 1007.5R
PORT WING        1900   71     250/  9/ 12 1008.1R
SAXON HARBOR     1900   58        CALM     1007.5
$$

LMZ867-665-643>646-032100-
LAKE MICHIGAN

STATION/POSITION TIME  TEMP    WIND        PRES    WAVE
                       AIR SEA DIR/SP/G            HT/PER
                 (UTC) (F)     (DEG/KT/KT) (MB)    (FT/S)
CHAMBERS ISLAND  1900   72     160/  9/ 14 1010.2F
NORTHPORT PIER   1900   59     150/ 11/ 17 1010.8F
SISTER BAY       1817   71     190/ 16/ 18   N/A
KEWAUNEE LAKESHO 1912   47     180/ 16/ 18 1010.8F
SHEBOYGAN LAKESH 2000   48     170/ 20/ 22 1012.0F
PORT WASHINGTON  1940   51     160/  5/  7 1012.9S
ATWATER BUOY     2000          210/ 19/ 21 1013.5F
MILWAUKEE LAKESH 2000   73     210/ 20/ 25   N/A
KENOSHA   LAKESH 2000   76     210/ 12/ 18 1012.9R
$$

TC  - TEMPERATURE IN CELSIUS
VSB - VISIBILITY IN STATUTE MILES
WCI - WIND CHILL INDEX
HX  - HEAT INDEX



USA.gov is the U.S. government's official web portal to all federal, state and local government web resources and services.